Location: Newark
(19.2128°S, 49.7858°W)
Time: 10:05:54
(UTC+00:00)

Envisat - Pass Details

Date: 29 August 2019
Orbit: 764 x 766 km, 98.1° (Epoch: 15 September)

Event Time Altitude Azimuth Distance (km) Brightness Sun altitude
Rises 08:43:02 0° 50° (NE) 3,218 7.3 -11.8°
Reaches altitude 10° 08:46:11 10° 71° (ENE) 2,301 6.9 -11.0°
Maximum altitude 08:49:13 16° 108° (ESE) 1,917 6.1 -10.3°
Drops below altitude 10° 08:52:15 10° 145° (SE) 2,315 5.9 -9.6°
Sets 08:55:25 0° 166° (SSE) 3,249 6.4 -8.9°
